CAPE
0 0 0 0 0 0 0 0 0 0 0 0 0 0 0 0 0 0 105 20 579 943 1143 1286 1402 1654 1772 1756 1753 1800 1967 2069 2052 2143 2113 2141 2166 2178 2231 2105 1965 2157 2045 1627 1514 1538 1582 1479 1451
0 0 0 0 0 0 0 0 0 0 0 0 0 0 0 0 41 329 105 391 679 1053 1156 1206 1320 1542 1815 1874 1870 1952 2152 2184 2198 2234 2274 2301 2254 2221 2158 1500 1469 1667 1897 1692 1360 1449 1516 1544 1328
0 0 0 0 0 0 0 0 0 0 0 0 0 0 0 0 157 140 28 540 745 972 1035 1160 1292 1456 1672 1866 1915 1996 2131 2050 2122 2165 2363 2418 2373 2284 1892 1224 1261 1590 1667 1285 1391 1493 1653 1175 1050
0 0 0 0 0 0 0 0 0 0 0 0 0 0 0 0 287 146 155 365 353 714 816 1160 1239 1401 1602 1829 2030 2053 2006 1889 1951 2027 2332 2531 2511 2323 1741 1059 1132 1528 1574 1237 1097 1648 1438 989 831
0 0 0 0 0 0 0 0 0 0 0 0 0 0 0 0 0 519 600 171 448 650 763 1061 1214 1402 1667 1935 2085 2034 1918 1832 1882 2031 2230 2439 2512 2239 1476 1211 1009 1040 1603 1545 1312 1024 1029 872 768
0 0 0 0 0 0 0 0 0 0 0 0 0 0 0 0 188 525 518 274 831 481 612 922 1199 1388 1623 1902 1927 1955 1933 1840 1854 2017 2113 2267 2277 1758 1212 807 838 794 1285 1371 1095 822 789 810 747
0 0 0 0 0 0 0 0 0 0 0 0 0 0 0 0 107 319 274 1010 1052 445 585 825 1134 1309 1491 1754 1839 1928 1954 1913 1841 1959 2047 2089 1894 1431 1054 645 703 880 822 1094 936 784 791 781 718
0 0 0 0 0 0 0 0 0 0 0 0 0 0 0 0 1 180 958 1107 1070 740 566 652 1033 1199 1301 1545 1791 1950 1696 1941 1885 1873 1988 1949 1716 1423 1033 449 511 273 817 749 840 789 718 703 575
0 0 0 0 0 0 0 0 0 0 0 0 0 0 0 2 0 593 1199 1455 1128 966 763 572 865 1094 1143 1353 1690 1955 1680 1894 1858 1556 1936 1842 1695 1413 1054 638 388 319 800 870 867 814 778 754 601
0 0 0 0 0 0 0 0 0 0 0 0 0 0 32 13 7 809 1121 1397 1393 1220 985 679 709 907 1008 1128 1455 1813 1564 1769 1792 1542 1612 1849 1662 1407 1136 914 712 651 763 881 868 827 810 689 229
0 0 0 0 0 0 0 0 0 0 0 0 0 0 15 86 161 685 1091 1393 1576 1522 1244 987 710 738 972 1184 1090 1581 1504 1494 1755 1318 1478 1814 1643 1448 1284 1088 809 506 638 792 808 673 533 347 200
0 0 0 0 0 0 0 0 0 0 0 0 0 0 0 0 0 269 1092 1328 1400 1784 1715 1413 1274 916 990 1198 999 1056 1437 1232 1359 1238 1463 1436 1735 1480 1332 1069 821 553 519 405 411 432 431 223 170
0 0 0 0 0 0 0 0 0 0 0 0 0 0 0 0 0 0 19 948 1439 1837 2045 1867 1807 1761 1175 1327 990 921 1136 1401 1061 1086 1427 1866 1578 1548 1382 1143 901 769 575 517 592 427 324 195 136
0 0 0 0 0 0 0 0 0 0 0 0 0 0 0 0 0 0 0 0 879 1835 2205 2236 2103 2108 1773 1385 1405 1112 1068 1043 1163 1222 1423 1607 2118 1773 1522 1306 1082 948 776 655 474 461 257 270 189
0 0 0 0 0 0 0 0 0 0 0 0 0 0 0 0 0 0 0 0 1 280 1870 2422 2326 2293 2260 1840 1711 1784 1541 1234 1198 1240 1406 1938 1617 1692 1605 1403 1164 1065 923 673 630 491 211 226 110
0 0 0 0 0 0 0 0 0 0 0 0 0 0 0 0 0 0 0 0 0 0 403 2169 2525 2438 2403 2300 2019 1936 1911 1728 1579 1590 1419 1747 1805 1664 1615 1602 1360 1211 1105 865 754 491 228 104 61
0 0 0 0 0 0 0 0 0 0 0 0 0 0 0 0 0 0 0 0 0 0 0 1634 2522 2577 2530 2491 2386 2151 2053 1924 1947 2026 1879 1733 1908 1954 1678 1657 1548 1375 1165 928 734 546 294 77 44
0 0 0 0 0 0 0 0 0 0 0 0 0 0 0 0 0 0 0 0 0 0 0 1357 2368 2772 2646 2508 2408 2180 2207 2065 1911 1898 2068 1947 1862 1902 2010 1838 1666 1395 1198 1055 805 532 314 105 93
0 0 0 0 0 0 0 0 0 0 0 0 0 0 0 0 0 0 0 0 0 0 0 1173 2376 2836 2677 2221 2217 2069 2169 2050 2023 1889 1804 2039 2006 2031 1955 1912 1565 1492 1390 1231 792 531 430 191 104
0 0 0 0 0 0 0 0 0 0 0 0 0 0 0 0 0 0 0 0 0 0 1 13 22 246 1639 2180 2089 2042 1985 1917 2150 2066 1620 1846 2068 1946 1814 1662 1353 1385 1445 1319 1073 646 494 333 173
0 0 0 0 0 0 0 0 0 0 0 0 0 0 0 0 0 0 0 0 34 133 216 296 354 391 407 357 231 1578 1973 1862 1901 2076 2001 1524 1619 1944 1818 1329 1254 1227 1349 1092 1064 835 618 405 196
0 0 0 0 0 0 0 0 0 0 0 0 0 0 0 0 0 2 0 257 357 263 124 100 96 85 408 729 652 495 1638 1770 1759 1497 1408 1770 1545 1378 1550 1421 1322 1263 1249 1252 1159 987 738 487 150
0 0 0 0 0 0 0 0 0 0 0 0 0 0 0 0 0 32 0 252 210 150 179 150 161 169 204 220 524 651 407 284 895 1687 1567 1368 1322 1186 1294 1271 1144 1308 1298 1425 1292 991 881 644 162
0 0 0 0 0 0 0 0 0 0 0 0 0 0 0 0 0 5 324 308 418 166 23 22 109 328 289 245 149 133 266 805 1017 862 1309 1164 975 1012 1076 1050 1138 1419 1414 1362 1171 1008 915 566 219
0 0 0 0 0 0 0 0 0 0 0 0 0 0 0 0 0 304 308 295 20 8 16 23 92 324 493 406 282 182 61 135 820 927 909 909 864 949 849 910 1004 1158 1234 1123 1000 688 791 757 70
0 0 0 0 0 0 0 0 0 0 0 0 9 0 0 0 0 291 271 73 14 22 32 49 24 5 132 170 137 144 55 25 121 396 581 741 425 597 565 769 803 849 996 1080 865 604 525 151 80
0 0 0 0 0 0 0 0 0 0 0 11 30 1 0 0 21 237 108 71 33 43 31 37 14 0 0 0 0 0 0 5 28 97 353 376 576 471 497 473 638 791 749 794 643 684 410 160 169
0 0 0 17 0 0 32 0 0 0 0 3 39 56 48 114 149 98 19 19 10 17 34 27 0 0 0 0 0 0 0 0 12 45 158 265 519 661 677 808 618 676 640 757 585 565 195 138 160
0 15 41 34 20 0 0 41 5 0 0 0 0 44 78 32 43 33 7 14 16 6 2 4 4 15 10 7 0 0 0 0 0 4 41 123 268 640 628 747 500 511 529 481 677 401 257 128 322
21 7 62 29 1 0 14 0 16 11 0 2 0 0 152 67 29 1 0 19 9 9 2 12 33 59 40 9 0 0 0 0 0 0 2 53 123 402 613 621 544 451 316 344 476 397 432 230 136
CIN
0 0 0 0 0 0 0 0 0 0 0 0 0 0 0 0 0 0 -237 -298 -620 -546 -466 -402 -328 -243 -200 -150 -112 -80 -49 -26 -16 -10 -15 -7 -3 -4 -0 -3 -6 -3 -3 -7 -8 -6 -8 -12 -14
0 0 0 0 0 0 0 0 0 0 0 0 0 0 0 0 -131 -313 -510 -648 -611 -553 -480 -422 -353 -280 -208 -154 -109 -68 -30 -20 -13 -7 -0 0 -0 -2 -1 -58 -59 -34 -8 -13 -23 -19 -18 -15 -19
0 0 0 0 0 0 0 0 0 0 0 0 0 0 0 0 -297 -277 -637 -667 -647 -598 -544 -457 -384 -317 -260 -173 -122 -75 -41 -36 -23 -7 0 0 0 0 -27 -96 -83 -39 -26 -52 -44 -27 -12 -23 -31
0 0 0 0 0 0 0 0 0 0 0 0 0 0 0 0 -338 -291 -659 -695 -711 -667 -628 -492 -430 -362 -291 -201 -130 -90 -68 -65 -43 -20 -0 0 0 -0 -38 -118 -90 -39 -24 -47 -62 -29 -43 -52 -53
0 0 0 0 0 0 0 0 0 0 0 0 0 0 0 0 0 -514 -598 -715 -672 -680 -668 -528 -462 -389 -296 -194 -145 -118 -106 -93 -67 -29 -2 -0 0 -2 -62 -88 -103 -80 -26 -32 -50 -71 -64 -77 -50
0 0 0 0 0 0 0 0 0 0 0 0 0 0 0 0 -297 -393 -511 -647 -562 -766 -713 -583 -477 -401 -321 -224 -190 -151 -126 -112 -80 -48 -27 -6 -8 -45 -95 -136 -123 -113 -49 -39 -64 -83 -117 -69 -48
0 0 0 0 0 0 0 0 0 0 0 0 0 0 0 0 -264 -292 -358 -455 -539 -768 -722 -594 -490 -417 -339 -272 -224 -176 -143 -117 -87 -58 -50 -28 -42 -77 -124 -119 -139 -102 -98 -56 -66 -86 -122 -96 -50
0 0 0 0 0 0 0 0 0 0 0 0 0 0 0 0 -28 -204 -439 -429 -446 -586 -687 -644 -506 -438 -379 -298 -249 -190 -192 -135 -106 -77 -62 -51 -49 -74 -70 -201 -183 -212 -103 -97 -67 -91 -98 -104 -66
0 0 0 0 0 0 0 0 0 0 0 0 0 0 0 -34 0 -409 -389 -395 -477 -460 -558 -611 -524 -439 -407 -331 -242 -189 -202 -143 -124 -133 -62 -71 -54 -72 -77 -69 -122 -195 -105 -91 -80 -92 -92 -79 -61
0 0 0 0 0 0 0 0 0 0 0 0 0 0 -112 -111 -190 -274 -269 -305 -334 -429 -495 -555 -529 -449 -402 -365 -267 -188 -215 -172 -145 -152 -115 -81 -81 -84 -88 -64 -59 -144 -111 -82 -81 -74 -69 -84 -142
0 0 0 0 0 0 0 0 0 0 0 0 0 0 -53 -120 -101 -172 -207 -260 -299 -350 -407 -481 -548 -486 -397 -343 -328 -216 -217 -208 -153 -199 -153 -90 -89 -75 -76 -63 -77 -135 -104 -76 -77 -82 -104 -104 -108
0 0 0 0 0 0 0 0 0 0 0 0 0 0 0 0 0 -82 -114 -207 -210 -256 -329 -195 -128 -93 -406 -331 -350 -309 -224 -242 -211 -214 -164 -157 -97 -86 -92 -91 -94 -74 -130 -126 -129 -99 -81 -99 -93
0 0 0 0 0 0 0 0 0 0 0 0 0 0 0 0 0 0 -87 -94 -166 -213 -247 -239 -149 -104 -351 -309 -359 -339 -278 -219 -263 -239 -171 -111 -126 -101 -94 -96 -100 -83 -61 -124 -93 -83 -64 -100 -82
0 0 0 0 0 0 0 0 0 0 0 0 0 0 0 0 0 0 0 0 -108 -138 -175 -214 -186 -134 -126 -299 -293 -315 -288 -270 -239 -214 -175 -129 -60 -77 -79 -72 -78 -82 -64 -102 -103 -46 -54 -71 -62
0 0 0 0 0 0 0 0 0 0 0 0 0 0 0 0 0 0 0 0 -1 -81 -133 -170 -168 -159 -141 -157 -259 -209 -197 -244 -225 -202 -151 -69 -89 -68 -56 -55 -72 -74 -52 -42 -61 -20 -33 -48 -40
0 0 0 0 0 0 0 0 0 0 0 0 0 0 0 0 0 0 0 0 0 0 -175 -163 -189 -133 -137 -142 -161 -191 -139 -126 -153 -136 -130 -71 -49 -33 -28 -10 -41 -50 -26 -34 -42 -6 -2 -44 -32
0 0 0 0 0 0 0 0 0 0 0 0 0 0 0 0 0 0 0 0 0 0 0 -251 -177 -152 -135 -118 -130 -101 -93 -77 -84 -64 -63 -52 -22 -0 -6 -2 -2 -10 -4 -30 -26 -15 -3 -27 -13
0 0 0 0 0 0 0 0 0 0 0 0 0 0 0 0 0 0 0 0 0 0 0 -267 -168 -138 -124 -118 -77 -51 -57 -50 -39 -52 -35 -42 -26 -26 -3 -6 -7 -7 -2 -9 -19 -10 -9 -10 -3
0 0 0 0 0 0 0 0 0 0 0 0 0 0 0 0 0 0 0 0 0 0 0 -180 -112 -82 -77 -64 -71 -74 -50 -57 -47 -32 -37 -23 -10 -18 -4 -4 -14 -8 -6 -6 -48 -12 -1 -19 0
0 0 0 0 0 0 0 0 0 0 0 0 0 0 0 0 0 0 0 0 0 0 -47 -60 -91 -110 -118 -54 -68 -44 -70 -48 -35 -33 -18 -33 -16 -20 -13 -6 -23 -14 -5 -5 -1 -3 -1 0 -1
0 0 0 0 0 0 0 0 0 0 0 0 0 0 0 0 0 0 0 0 -296 -245 -232 -199 -187 -162 -125 -106 -106 -67 -37 -42 -33 -13 -7 -11 -35 -18 -10 -22 -19 -15 -6 -6 -4 0 -2 -5 -6
0 0 0 0 0 0 0 0 0 0 0 0 0 0 0 0 0 -88 0 -154 -170 -186 -249 -273 -263 -254 -211 -103 -60 -54 -40 -36 -43 -70 -57 -19 -8 -38 -18 -9 -5 -9 -4 -1 -3 -2 -3 -6 -9
0 0 0 0 0 0 0 0 0 0 0 0 0 0 0 0 -17 -92 -14 -112 -88 -133 -197 -211 -249 -235 -217 -274 -132 -38 -15 -123 -67 -45 -30 -46 -28 -52 -27 -13 -13 -6 -8 -4 -4 -6 -0 0 -14
0 0 0 0 0 0 0 0 0 0 0 0 0 0 0 0 0 -61 -139 -79 -121 -123 -141 -270 -258 -312 -206 -172 -122 -67 -31 -34 -23 -45 -26 -39 -47 -50 -59 -53 -22 -4 -7 -5 -8 -3 -1 -1 -1
0 0 0 0 0 0 0 0 0 0 0 0 0 0 0 0 0 -41 -89 -106 -138 -42 -41 -422 -331 -236 -111 -114 -110 -79 -148 -83 -1 -6 -10 -10 -17 -6 -48 -19 -18 -12 0 -9 -9 -25 -0 -0 -57
0 0 0 0 0 0 0 0 0 0 0 0 -73 0 0 0 0 -120 -93 -127 -158 -93 -7 -370 -384 -435 -186 -145 -123 -100 -123 -168 -61 -13 0 -3 -34 -1 -52 -52 -30 -30 -12 -5 -19 -32 -16 -59 -62
0 0 -1 0 0 0 0 0 0 0 0 -152 -115 -21 0 0 -124 -62 -101 -122 -169 -218 -206 -296 -339 0 0 -145 0 0 0 -239 -207 -71 -4 -8 -6 -24 -26 -43 -50 -46 -42 -26 -37 -28 -38 -47 -15
0 0 0 -3 0 0 -12 -0 -2 0 0 -59 -71 -89 -35 -14 -29 -29 -49 -143 -117 -139 -260 -304 0 0 0 0 0 0 0 0 -284 -215 -42 -12 -2 -1 -7 -12 -34 -38 -45 -37 -46 -41 -83 -56 -22
0 -21 -13 -8 -21 0 0 -4 -4 -4 0 0 0 -1 -9 -2 -22 -17 -10 -11 -156 -176 -187 -243 -198 -229 -199 -214 0 0 0 0 0 -251 -131 -42 -8 0 0 -0 -21 -37 -47 -61 -25 -70 -57 -76 -3
-3 -11 -13 -3 -1 0 -2 0 -2 -4 0 -9 0 -0 -0 -4 -3 -29 0 -14 -61 -67 -142 -227 -212 -177 -158 -155 0 0 0 0 0 -12 -230 -86 -34 -1 0 0 -3 -26 -76 -86 -57 -56 -22 -27 -28
Wind_Speed
nan nan nan nan nan nan nan nan nan nan nan nan nan nan nan nan nan nan 10 nan 17 19 16 18 16 22 25 25 24 24 25 27 28 28 32 34 35 37 37 36 37 38 36 36 34 32 38 43 42
nan nan nan nan nan nan nan nan nan nan nan nan nan nan nan nan nan 32 28 16 18 22 16 15 18 24 26 26 23 24 25 27 27 29 31 32 35 38 39 39 38 38 37 37 34 35 36 40 36
nan nan nan nan nan nan nan nan nan nan nan nan nan nan nan nan 33 36 nan 25 23 24 19 16 20 23 27 25 25 26 27 29 30 28 30 31 33 37 39 40 41 39 37 39 38 34 36 36 23
nan nan nan nan nan nan nan nan nan nan nan nan nan nan nan nan 47 36 39 29 27 30 23 22 24 25 27 26 26 28 29 28 29 30 30 32 33 35 39 42 43 40 35 35 35 33 35 35 35
nan nan nan nan nan nan nan nan nan nan nan nan nan nan nan nan nan 48 39 32 36 33 29 25 27 27 28 26 26 27 30 30 31 32 33 35 34 34 38 45 44 41 35 33 32 30 30 32 31
nan nan nan nan nan nan nan nan nan nan nan nan nan nan nan nan 46 39 33 33 32 40 39 32 29 29 29 27 27 27 28 30 30 33 34 36 37 38 41 44 44 42 34 31 31 30 29 29 25
nan nan nan nan nan nan nan nan nan nan nan nan nan nan nan nan 43 45 37 35 31 34 41 36 34 31 30 31 29 28 28 28 30 32 34 35 38 41 43 45 46 44 32 31 31 30 27 27 25
nan nan nan nan nan nan nan nan nan nan nan nan nan nan nan nan nan 49 47 42 38 35 36 39 42 38 34 32 33 30 30 30 31 31 34 35 37 43 44 46 46 43 33 29 29 28 27 25 22
nan nan nan nan nan nan nan nan nan nan nan nan nan nan nan nan nan 52 48 43 41 39 33 38 41 40 40 36 32 34 31 30 31 31 33 35 30 36 42 42 45 42 32 30 28 31 27 24 25
nan nan nan nan nan nan nan nan nan nan nan nan nan nan nan nan nan 50 46 46 40 37 37 35 39 37 40 38 36 33 30 28 27 27 30 30 30 32 38 41 44 40 33 33 30 32 28 23 18
nan nan nan nan nan nan nan nan nan nan nan nan nan nan nan nan 55 55 47 50 46 43 42 37 37 38 40 38 37 33 32 30 30 28 31 31 29 28 33 35 36 33 29 27 26 24 24 22 19
nan nan nan nan nan nan nan nan nan nan nan nan nan nan nan nan nan 51 51 46 48 51 44 40 38 39 37 37 36 35 35 35 32 29 29 31 29 29 31 34 35 32 28 29 27 22 22 17 17
nan nan nan nan nan nan nan nan nan nan nan nan nan nan nan nan nan nan nan 45 43 45 43 41 42 40 38 37 38 37 36 35 33 31 28 28 28 30 31 33 34 31 29 28 28 21 19 17 16
nan nan nan nan nan nan nan nan nan nan nan nan nan nan nan nan nan nan nan nan 46 42 42 40 41 40 39 37 39 39 39 37 34 31 29 29 28 30 30 34 34 30 27 28 27 22 18 22 16
nan nan nan nan nan nan nan nan nan nan nan nan nan nan nan nan nan nan nan nan nan 46 41 39 40 42 41 36 38 37 38 38 34 31 32 29 28 30 31 32 33 30 26 29 27 22 19 24 25
nan nan nan nan nan nan nan nan nan nan nan nan nan nan nan nan nan nan nan nan nan nan 47 37 41 41 42 36 35 36 36 36 34 33 33 30 28 32 31 31 31 32 27 27 27 25 21 20 nan
nan nan nan nan nan nan nan nan nan nan nan nan nan nan nan nan nan nan nan nan nan nan nan 46 37 41 44 39 36 34 36 35 36 35 34 30 29 31 30 31 30 32 26 27 27 24 22 nan nan
nan nan nan nan nan nan nan nan nan nan nan nan nan nan nan nan nan nan nan nan nan nan nan 56 46 41 45 41 38 33 33 35 39 34 33 32 30 29 29 29 30 32 28 28 26 25 22 22 nan
nan nan nan nan nan nan nan nan nan nan nan nan nan nan nan nan nan nan nan nan nan nan nan 65 60 50 49 41 39 34 30 33 35 34 32 32 29 28 28 28 30 30 29 29 26 25 24 20 20
nan nan nan nan nan nan nan nan nan nan nan nan nan nan nan nan nan nan nan nan nan nan nan nan nan 58 47 43 40 35 33 34 33 34 33 30 29 29 30 32 25 29 30 31 28 27 22 20 23
nan nan nan nan nan nan nan nan nan nan nan nan nan nan nan nan nan nan nan nan nan 62 62 67 64 65 53 43 47 42 37 38 37 33 34 34 32 30 30 37 30 29 29 31 29 28 25 22 21
nan nan nan nan nan nan nan nan nan nan nan nan nan nan nan nan nan nan nan 55 62 52 58 63 nan nan 47 49 46 40 34 31 31 32 34 36 26 25 33 36 31 28 28 29 31 29 24 25 22
nan nan nan nan nan nan nan nan nan nan nan nan nan nan nan nan nan nan nan 55 56 61 59 57 57 49 43 45 47 44 40 37 36 36 33 32 27 26 32 36 32 28 26 29 32 31 25 23 24
nan nan nan nan nan nan nan nan nan nan nan nan nan nan nan nan nan nan 62 59 61 63 nan nan 59 57 51 46 47 47 45 38 35 35 33 35 36 33 32 32 31 27 27 30 32 30 27 24 24
nan nan nan nan nan nan nan nan nan nan nan nan nan nan nan nan nan 48 53 53 nan nan nan nan nan 52 40 45 42 42 nan 39 32 33 36 37 38 33 29 29 29 26 26 29 31 28 26 23 nan
nan nan nan nan nan nan nan nan nan nan nan nan nan nan nan nan nan 44 48 nan nan nan nan nan nan nan 43 45 41 41 nan nan 33 35 34 34 34 29 27 27 30 25 27 28 30 26 25 24 nan
nan nan nan nan nan nan nan nan nan nan nan nan nan nan nan nan nan 46 47 nan nan nan nan nan nan nan nan nan nan nan nan nan nan nan 34 31 28 29 30 29 31 24 27 28 30 27 25 24 27
nan nan nan nan nan nan nan nan nan nan nan nan nan nan nan 45 48 nan nan nan nan nan nan nan nan nan nan nan nan nan nan nan nan nan 34 31 32 37 34 32 29 26 26 25 28 27 25 25 27
nan nan nan nan nan nan nan nan nan nan nan nan nan nan nan nan nan nan nan nan nan nan nan nan nan nan nan nan nan nan nan nan nan nan nan 36 36 33 32 30 29 30 27 28 29 29 27 24 26
nan nan nan nan nan nan nan nan nan nan nan nan nan nan 55 nan nan nan nan nan nan nan nan nan nan nan nan nan nan nan nan nan nan nan nan nan 38 34 30 28 32 27 27 32 32 29 27 24 23
Wind_Direction
nan nan nan nan nan nan nan nan nan nan nan nan nan nan nan nan nan nan 278 nan 282 300 312 317 317 314 311 313 317 314 312 310 311 312 314 312 311 310 308 309 309 313 313 311 309 306 298 291 274
nan nan nan nan nan nan nan nan nan nan nan nan nan nan nan nan nan 275 275 288 304 292 299 310 313 310 314 312 314 320 319 315 313 314 314 315 316 315 314 314 309 310 315 309 306 310 309 306 289
nan nan nan nan nan nan nan nan nan nan nan nan nan nan nan nan 266 284 nan 293 293 292 292 301 309 310 319 317 319 316 316 318 318 317 317 319 318 320 320 318 318 314 313 313 314 315 304 298 287
nan nan nan nan nan nan nan nan nan nan nan nan nan nan nan nan 293 283 286 293 289 284 292 297 300 299 305 318 320 315 315 321 320 322 323 324 323 327 324 322 322 318 317 315 314 314 312 309 287
nan nan nan nan nan nan nan nan nan nan nan nan nan nan nan nan nan 283 293 293 285 285 286 293 295 294 299 308 315 316 314 319 321 323 324 327 330 329 325 327 327 325 317 314 312 313 308 292 296
nan nan nan nan nan nan nan nan nan nan nan nan nan nan nan nan 272 273 271 270 274 287 286 287 289 292 297 300 303 310 311 313 321 323 325 327 329 327 327 328 330 330 318 314 309 317 311 295 290
nan nan nan nan nan nan nan nan nan nan nan nan nan nan nan nan 267 272 268 265 262 269 282 282 285 289 290 293 296 300 307 309 312 318 323 326 325 327 331 329 328 330 320 310 314 320 315 303 293
nan nan nan nan nan nan nan nan nan nan nan nan nan nan nan nan nan 264 266 264 264 264 276 285 286 287 288 288 297 299 302 308 309 313 319 321 323 326 330 334 333 332 321 311 308 314 306 302 298
nan nan nan nan nan nan nan nan nan nan nan nan nan nan nan nan nan 270 269 260 260 265 270 276 280 284 285 284 292 300 297 302 305 306 313 312 319 323 327 336 337 335 320 312 315 317 319 317 308
nan nan nan nan nan nan nan nan nan nan nan nan nan nan nan nan nan 275 279 282 277 275 272 269 278 286 288 287 289 291 292 287 293 297 300 305 314 321 322 332 336 337 322 315 315 320 318 310 287
nan nan nan nan nan nan nan nan nan nan nan nan nan nan nan nan 275 285 287 290 291 287 281 287 288 289 291 289 290 286 285 282 285 297 296 301 306 315 317 325 331 332 320 305 306 311 302 302 281
nan nan nan nan nan nan nan nan nan nan nan nan nan nan nan nan nan 290 293 295 296 292 295 292 290 288 287 282 287 288 287 285 281 289 299 297 302 311 316 322 327 329 316 315 310 315 304 300 289
nan nan nan nan nan nan nan nan nan nan nan nan nan nan nan nan nan nan nan 282 283 286 290 294 288 285 283 282 282 285 287 286 287 284 294 298 302 311 314 319 326 326 319 314 311 318 306 302 305
nan nan nan nan nan nan nan nan nan nan nan nan nan nan nan nan nan nan nan nan 276 284 285 284 285 283 282 279 281 281 279 281 280 282 290 292 299 305 311 315 323 323 313 312 309 314 302 308 279
nan nan nan nan nan nan nan nan nan nan nan nan nan nan nan nan nan nan nan nan nan 277 283 283 285 284 283 284 281 281 280 280 278 277 279 295 293 300 309 310 319 318 308 307 300 305 305 295 290
nan nan nan nan nan nan nan nan nan nan nan nan nan nan nan nan nan nan nan nan nan nan 278 287 284 287 287 285 282 277 279 276 273 271 269 283 290 294 301 304 313 312 302 301 302 304 310 306 nan
nan nan nan nan nan nan nan nan nan nan nan nan nan nan nan nan nan nan nan nan nan nan nan 279 283 290 291 284 280 269 268 267 266 265 268 277 281 289 298 300 307 308 298 298 298 295 314 nan nan
nan nan nan nan nan nan nan nan nan nan nan nan nan nan nan nan nan nan nan nan nan nan nan 274 274 273 277 277 271 265 264 265 264 262 262 267 275 290 295 298 306 309 296 294 295 300 304 314 nan
nan nan nan nan nan nan nan nan nan nan nan nan nan nan nan nan nan nan nan nan nan nan nan 260 265 263 263 261 263 260 263 259 257 256 259 262 275 289 293 292 297 299 294 295 297 283 301 294 298
nan nan nan nan nan nan nan nan nan nan nan nan nan nan nan nan nan nan nan nan nan nan nan nan nan 260 257 251 251 251 252 251 255 255 256 262 268 282 287 293 290 294 286 285 295 293 286 281 300
nan nan nan nan nan nan nan nan nan nan nan nan nan nan nan nan nan nan nan nan nan 252 254 255 254 254 254 251 249 245 237 234 243 250 253 258 257 269 286 290 294 297 284 283 292 291 296 299 297
nan nan nan nan nan nan nan nan nan nan nan nan nan nan nan nan nan nan nan 246 255 251 255 255 nan nan 248 247 250 251 248 244 234 244 250 256 260 269 283 288 294 295 278 281 287 287 292 302 304
nan nan nan nan nan nan nan nan nan nan nan nan nan nan nan nan nan nan nan 248 254 252 249 254 255 240 241 246 248 252 251 240 230 230 252 260 257 271 277 283 290 297 276 277 285 285 285 288 304
nan nan nan nan nan nan nan nan nan nan nan nan nan nan nan nan nan nan 259 257 254 254 nan nan 252 250 227 238 237 240 239 242 242 236 246 251 250 258 269 277 285 292 273 276 277 282 288 291 291
nan nan nan nan nan nan nan nan nan nan nan nan nan nan nan nan nan 262 260 256 nan nan nan nan nan 243 230 235 234 234 nan 237 243 246 250 246 249 251 261 272 279 287 268 273 276 279 284 290 nan
nan nan nan nan nan nan nan nan nan nan nan nan nan nan nan nan nan 267 262 nan nan nan nan nan nan nan 239 227 230 233 nan nan 236 247 245 242 247 249 263 283 280 286 269 268 272 274 279 289 nan
nan nan nan nan nan nan nan nan nan nan nan nan nan nan nan nan nan 257 255 nan nan nan nan nan nan nan nan nan nan nan nan nan nan nan 244 242 248 254 263 279 277 280 267 271 276 274 283 283 292
nan nan nan nan nan nan nan nan nan nan nan nan nan nan nan 212 227 nan nan nan nan nan nan nan nan nan nan nan nan nan nan nan nan nan 232 238 242 253 259 268 267 270 263 270 276 276 282 291 294
nan nan nan nan nan nan nan nan nan nan nan nan nan nan nan nan nan nan nan nan nan nan nan nan nan nan nan nan nan nan nan nan nan nan nan 237 243 250 255 260 257 263 258 264 273 272 279 288 293
nan nan nan nan nan nan nan nan nan nan nan nan nan nan 216 nan nan nan nan nan nan nan nan nan nan nan nan nan nan nan nan nan nan nan nan nan 236 240 254 254 257 256 254 260 264 264 273 282 296